Precipitable_Water
1.51 1.49 1.54 1.55 1.61 1.61 1.62 1.55 1.57 1.68 1.72 1.60 1.43 1.30 1.19 1.15 1.13 1.08 1.08 1.07 1.04 1.00 0.90 0.81 0.73 0.70 0.65 0.58 0.52 0.50 0.52 0.65 0.79 0.86 0.95 1.00 1.05 1.09 1.15 1.18 1.20 1.25 1.26
1.56 1.55 1.62 1.68 1.65 1.60 1.58 1.65 1.73 1.79 1.74 1.40 1.21 1.11 1.07 1.06 1.04 1.00 0.96 0.95 0.85 0.73 0.67 0.67 0.65 0.63 0.61 0.54 0.49 0.46 0.43 0.50 0.68 0.76 0.88 0.89 0.93 0.98 1.06 1.10 1.14 1.16 1.20
1.55 1.60 1.61 1.64 1.59 1.57 1.67 1.73 1.70 1.71 1.51 1.22 1.10 1.06 0.99 0.93 0.90 0.83 0.75 0.69 0.64 0.66 0.69 0.65 0.63 0.60 0.57 0.49 0.44 0.42 0.41 0.43 0.52 0.64 0.76 0.84 0.82 0.90 0.94 1.01 1.05 1.07 1.09
1.56 1.69 1.61 1.61 1.60 1.63 1.66 1.62 1.66 1.55 1.26 1.10 0.98 0.92 0.86 0.82 0.73 0.68 0.67 0.66 0.66 0.64 0.60 0.59 0.57 0.55 0.52 0.45 0.40 0.37 0.36 0.39 0.44 0.54 0.60 0.71 0.73 0.79 0.83 0.85 0.88 0.90 0.92
1.59 1.68 1.61 1.61 1.65 1.63 1.55 1.59 1.61 1.32 1.09 0.98 0.86 0.79 0.76 0.71 0.69 0.69 0.67 0.63 0.61 0.58 0.59 0.58 0.57 0.53 0.48 0.42 0.39 0.35 0.32 0.34 0.39 0.49 0.59 0.68 0.69 0.69 0.68 0.69 0.71 0.73 0.76
1.62 1.61 1.64 1.66 1.66 1.52 1.47 1.45 1.40 1.14 0.99 0.89 0.77 0.75 0.72 0.71 0.71 0.67 0.62 0.64 0.59 0.59 0.59 0.57 0.53 0.49 0.45 0.40 0.36 0.34 0.32 0.34 0.39 0.47 0.57 0.63 0.64 0.66 0.64 0.62 0.62 0.61 0.61
1.63 1.65 1.70 1.68 1.58 1.43 1.37 1.27 1.12 1.01 0.90 0.79 0.74 0.74 0.72 0.71 0.65 0.64 0.64 0.64 0.59 0.58 0.56 0.55 0.51 0.47 0.43 0.40 0.36 0.31 0.30 0.35 0.39 0.45 0.55 0.60 0.64 0.66 0.63 0.62 0.60 0.58 0.58
1.63 1.65 1.66 1.62 1.50 1.40 1.31 1.16 1.04 0.93 0.82 0.74 0.74 0.76 0.72 0.66 0.66 0.65 0.64 0.60 0.57 0.56 0.55 0.55 0.52 0.47 0.42 0.38 0.35 0.33 0.32 0.34 0.38 0.45 0.52 0.57 0.63 0.64 0.63 0.62 0.60 0.58 0.56
1.66 1.64 1.56 1.53 1.45 1.35 1.25 1.15 1.05 0.87 0.74 0.72 0.77 0.75 0.69 0.66 0.66 0.64 0.61 0.58 0.55 0.53 0.52 0.50 0.50 0.45 0.41 0.36 0.34 0.31 0.32 0.35 0.38 0.44 0.51 0.59 0.64 0.64 0.63 0.63 0.63 0.62 0.60
1.59 1.58 1.54 1.48 1.39 1.29 1.22 1.14 1.02 0.85 0.72 0.74 0.77 0.73 0.66 0.66 0.63 0.62 0.57 0.56 0.54 0.50 0.47 0.47 0.46 0.43 0.39 0.35 0.32 0.29 0.29 0.30 0.36 0.43 0.49 0.55 0.60 0.64 0.59 0.58 0.58 0.58 0.55
1.53 1.54 1.52 1.45 1.33 1.26 1.21 1.14 1.00 0.83 0.73 0.75 0.75 0.66 0.60 0.62 0.58 0.58 0.57 0.54 0.52 0.47 0.44 0.41 0.39 0.36 0.33 0.31 0.30 0.29 0.28 0.28 0.32 0.41 0.45 0.54 0.62 0.60 0.56 0.56 0.56 0.56 0.56
1.35 1.39 1.41 1.39 1.30 1.23 1.17 1.09 0.98 0.81 0.74 0.74 0.69 0.60 0.60 0.55 0.55 0.55 0.54 0.52 0.46 0.42 0.40 0.36 0.33 0.31 0.30 0.30 0.29 0.29 0.28 0.29 0.31 0.38 0.45 0.55 0.56 0.54 0.54 0.52 0.51 0.51 0.51
1.32 1.39 1.37 1.36 1.31 1.18 1.07 1.05 0.93 0.79 0.74 0.70 0.63 0.57 0.52 0.51 0.50 0.48 0.47 0.41 0.35 0.34 0.31 0.31 0.30 0.30 0.29 0.29 0.29 0.29 0.29 0.29 0.30 0.37 0.42 0.48 0.47 0.48 0.50 0.48 0.47 0.47 0.46
1.26 1.35 1.38 1.31 1.23 1.15 1.07 1.01 0.89 0.76 0.69 0.64 0.60 0.49 0.46 0.46 0.44 0.40 0.37 0.35 0.33 0.33 0.31 0.30 0.29 0.29 0.28 0.29 0.29 0.29 0.29 0.29 0.29 0.34 0.37 0.40 0.40 0.43 0.46 0.46 0.46 0.46 0.45
1.28 1.28 1.25 1.20 1.17 1.14 1.02 0.96 0.85 0.71 0.63 0.57 0.49 0.47 0.47 0.41 0.39 0.38 0.37 0.36 0.35 0.33 0.32 0.30 0.29 0.29 0.29 0.30 0.31 0.30 0.29 0.29 0.29 0.32 0.36 0.35 0.35 0.39 0.42 0.43 0.43 0.43 0.43
1.32 1.23 1.20 1.14 1.13 1.11 0.99 0.92 0.80 0.63 0.56 0.48 0.44 0.43 0.41 0.39 0.40 0.39 0.39 0.38 0.37 0.36 0.34 0.33 0.31 0.31 0.30 0.31 0.31 0.31 0.30 0.30 0.30 0.32 0.35 0.36 0.34 0.35 0.37 0.39 0.40 0.40 0.40
1.25 1.30 1.16 1.09 1.09 1.02 0.97 0.86 0.71 0.59 0.49 0.42 0.41 0.39 0.39 0.39 0.40 0.42 0.41 0.40 0.39 0.38 0.35 0.34 0.33 0.34 0.34 0.32 0.32 0.32 0.31 0.30 0.30 0.31 0.34 0.34 0.35 0.35 0.33 0.36 0.36 0.37 0.38
1.20 1.22 1.20 1.12 1.03 0.97 0.90 0.81 0.69 0.57 0.44 0.41 0.39 0.38 0.38 0.39 0.40 0.42 0.41 0.40 0.39 0.37 0.36 0.35 0.36 0.36 0.36 0.34 0.33 0.33 0.32 0.31 0.30 0.31 0.33 0.33 0.34 0.34 0.35 0.34 0.35 0.36 0.36
1.07 1.18 1.23 1.17 0.99 0.93 0.89 0.78 0.67 0.53 0.43 0.40 0.39 0.38 0.38 0.38 0.40 0.41 0.41 0.40 0.39 0.37 0.37 0.36 0.38 0.39 0.37 0.36 0.33 0.34 0.33 0.31 0.31 0.31 0.32 0.32 0.33 0.34 0.34 0.35 0.34 0.34 0.33
1.00 1.13 1.18 1.15 1.02 0.92 0.89 0.79 0.66 0.53 0.43 0.40 0.38 0.38 0.38 0.38 0.40 0.40 0.41 0.40 0.39 0.38 0.37 0.38 0.40 0.40 0.39 0.37 0.34 0.32 0.34 0.33 0.33 0.32 0.32 0.32 0.33 0.33 0.35 0.35 0.34 0.32 0.31
0.90 0.96 1.06 1.03 0.99 0.92 0.80 0.70 0.61 0.48 0.42 0.38 0.38 0.39 0.39 0.39 0.39 0.40 0.40 0.39 0.39 0.38 0.38 0.39 0.42 0.42 0.41 0.39 0.37 0.37 0.36 0.34 0.33 0.32 0.33 0.33 0.33 0.34 0.35 0.35 0.33 0.31 0.30
0.82 0.79 0.86 0.95 0.99 0.91 0.80 0.70 0.65 0.57 0.46 0.40 0.39 0.39 0.39 0.39 0.40 0.41 0.40 0.39 0.39 0.39 0.39 0.40 0.42 0.42 0.42 0.40 0.37 0.35 0.34 0.37 0.35 0.33 0.33 0.33 0.34 0.35 0.35 0.34 0.32 0.30 0.28
0.85 0.82 0.74 0.78 0.89 0.88 0.81 0.72 0.68 0.63 0.53 0.43 0.39 0.37 0.38 0.40 0.41 0.41 0.41 0.40 0.40 0.40 0.39 0.41 0.44 0.44 0.44 0.42 0.40 0.39 0.34 0.33 0.32 0.36 0.34 0.35 0.36 0.36 0.34 0.32 0.30 0.29 0.29
0.77 0.85 0.84 0.76 0.82 0.85 0.80 0.72 0.63 0.56 0.47 0.46 0.42 0.40 0.39 0.40 0.40 0.41 0.42 0.42 0.41 0.41 0.40 0.43 0.45 0.46 0.46 0.44 0.41 0.40 0.40 0.36 0.31 0.29 0.36 0.38 0.42 0.37 0.34 0.32 0.30 0.29 0.29
0.75 0.73 0.76 0.77 0.81 0.83 0.75 0.70 0.64 0.57 0.57 0.52 0.47 0.41 0.39 0.39 0.40 0.42 0.43 0.43 0.42 0.42 0.42 0.43 0.45 0.48 0.48 0.46 0.44 0.43 0.41 0.39 0.35 0.31 0.32 0.37 0.37 0.35 0.33 0.32 0.31 0.29 0.29
0.67 0.69 0.78 0.76 0.76 0.75 0.73 0.68 0.63 0.60 0.56 0.52 0.47 0.43 0.41 0.41 0.41 0.43 0.44 0.43 0.43 0.42 0.42 0.43 0.47 0.49 0.50 0.48 0.47 0.44 0.41 0.38 0.35 0.32 0.36 0.36 0.34 0.34 0.34 0.32 0.30 0.30 0.30
Wind_Speed
23 26 26 25 23 22 20 19 17 16 15 13 12 11 9 8 7 5 4 3 1 1 1 2 2 3 4 4 4 4 4 3 3 3 4 4 5 5 5 5 5 5 5
24 28 27 26 24 22 21 19 18 18 16 13 12 10 10 8 7 5 3 2 1 1 1 2 3 4 4 4 5 4 4 3 3 3 4 4 5 5 5 4 4 4 5
27 29 28 27 25 23 22 21 19 18 16 13 12 11 10 8 7 5 3 2 1 0 1 2 3 4 4 5 5 4 4 3 3 4 4 4 5 5 5 4 4 5 4
29 30 28 27 25 24 23 21 20 18 15 13 12 11 10 8 7 5 4 2 1 1 1 2 3 3 4 5 5 4 4 4 4 4 4 5 5 6 5 5 5 5 5
29 30 29 28 26 25 23 22 21 17 16 14 13 11 10 9 7 6 4 3 2 2 1 2 3 3 4 4 5 5 4 4 4 5 5 5 5 6 6 6 6 6 6
29 30 30 29 27 26 24 23 20 18 16 15 13 12 11 9 8 7 5 4 3 2 1 1 2 3 4 4 5 5 5 5 5 5 6 6 7 7 7 7 7 8 8
31 31 31 30 28 26 24 23 21 19 17 16 14 13 11 10 9 7 6 5 3 2 1 1 2 2 3 4 5 5 5 5 5 6 7 7 8 8 8 9 9 9 9
31 31 31 30 28 26 25 23 21 19 18 17 15 14 12 11 10 8 6 5 4 3 2 1 1 2 3 4 5 5 6 6 6 7 7 8 9 9 10 10 10 10 11
32 30 31 30 29 27 26 24 22 20 19 18 16 15 13 12 10 9 7 6 4 4 2 1 1 2 3 4 5 5 6 7 7 8 9 10 10 11 11 11 11 11 12
33 32 30 30 29 28 26 24 23 21 20 19 17 16 14 13 11 9 8 6 5 4 3 2 2 3 4 4 5 6 7 8 8 9 10 11 12 12 12 13 13 13 13
34 33 32 31 30 28 27 25 24 22 21 20 18 17 15 13 12 10 9 7 6 5 4 3 3 4 4 5 6 7 8 9 10 11 12 12 13 14 14 14 14 14 14
33 34 33 32 30 29 28 27 25 24 22 21 19 18 16 14 12 11 10 8 6 5 4 4 5 6 7 7 8 9 9 10 11 12 13 14 14 14 14 14 14 14 15
34 35 34 33 32 30 28 28 26 25 23 22 21 19 17 15 14 12 11 9 8 7 6 6 7 7 8 8 9 10 11 12 12 13 13 14 14 14 14 14 14 15 15
35 34 34 34 33 31 29 29 27 26 25 23 22 20 18 17 15 13 12 10 9 8 8 8 8 8 9 9 10 11 12 13 13 13 13 14 14 14 14 14 15 16 17
35 34 35 34 34 32 30 29 28 27 26 25 23 22 20 18 16 14 13 11 10 9 9 9 9 10 10 11 11 12 13 13 13 13 13 14 14 14 14 15 16 17 18
36 35 34 34 34 33 32 31 29 28 27 26 25 24 22 20 18 16 14 12 11 10 10 10 10 11 12 12 12 13 14 14 14 14 14 14 15 16 16 17 18 19 20
36 37 35 34 34 34 33 32 30 29 29 27 26 25 23 21 19 17 15 14 12 11 11 11 12 12 12 13 14 14 15 15 15 15 15 15 17 17 19 19 21 22 23
37 37 36 34 34 35 34 33 31 30 30 28 27 26 25 23 21 19 17 16 14 13 12 12 13 13 13 14 15 16 16 16 16 16 17 17 19 20 21 21 23 24 25
37 37 38 37 35 35 34 34 32 32 31 30 28 27 26 25 23 21 19 17 16 15 14 14 14 14 15 15 16 17 17 17 17 18 18 19 21 22 22 24 25 27 27
37 38 38 39 38 36 35 34 33 32 31 31 30 28 28 26 25 23 21 20 18 17 16 15 16 16 16 17 18 18 18 18 19 19 20 21 23 24 24 26 28 28 29
38 39 40 40 39 38 36 35 34 33 33 32 31 30 29 28 26 25 23 22 20 19 18 17 17 17 17 18 19 18 19 19 20 20 21 23 24 25 27 29 30 31 32
38 39 40 40 41 39 37 36 35 35 34 33 32 31 30 29 28 26 25 24 22 21 20 19 19 18 18 19 19 20 19 20 20 21 24 24 25 27 29 31 32 33 34
39 40 40 40 41 40 39 37 36 35 34 33 32 32 31 31 29 28 27 25 24 23 21 21 20 19 19 19 19 20 20 20 22 22 24 25 27 29 31 32 34 35 36
39 40 40 40 42 42 41 41 39 38 36 35 35 33 33 32 31 30 28 27 25 24 23 22 22 21 21 21 21 21 21 22 22 24 25 26 28 31 32 34 36 38 38
40 40 41 41 42 43 43 42 41 40 38 37 36 35 34 32 32 31 29 28 27 26 25 24 23 22 22 22 22 22 22 22 24 25 26 27 30 31 33 35 38 39 40
38 39 41 42 44 44 44 43 43 42 40 39 37 36 35 34 33 32 31 30 28 27 26 25 24 24 23 23 23 23 23 24 24 25 27 30 32 32 35 37 37 39 41
Wind_Direction
196 191 189 189 187 185 184 183 182 179 176 174 173 171 169 166 163 158 155 149 127 32 359 359 7 7 1 356 353 352 349 351 354 1 6 4 2 8 9 12 20 27 25
197 191 189 188 186 186 186 183 180 176 175 175 175 175 173 172 172 173 175 178 215 326 13 21 13 6 359 354 351 347 340 337 333 336 337 346 344 344 350 352 355 3 6
194 191 190 190 189 188 186 183 181 180 180 182 181 179 179 181 182 186 188 185 167 149 40 15 8 5 1 359 359 358 353 346 337 330 334 336 336 334 332 333 335 337 337
194 191 192 191 190 188 185 184 182 183 187 188 186 187 187 187 187 187 184 181 181 157 47 22 16 12 7 9 10 9 9 8 359 350 335 332 331 326 320 316 320 319 318
193 192 193 191 189 187 185 185 186 190 191 192 192 191 190 188 188 188 185 184 171 145 81 42 28 22 20 20 20 17 16 15 5 358 353 341 332 328 319 311 308 309 309
194 192 191 190 188 187 188 189 192 193 194 194 193 191 191 190 190 187 184 178 169 149 102 55 33 24 22 21 18 17 12 10 4 359 352 345 337 327 318 312 305 301 299
195 192 190 190 189 190 190 192 193 195 195 194 193 192 193 193 189 186 184 181 175 166 135 76 37 21 21 18 13 8 5 1 354 348 346 342 335 328 321 313 305 299 296
193 191 190 191 193 192 193 193 195 196 195 194 193 193 195 193 189 187 187 185 184 182 172 147 9 1 5 359 358 354 351 348 346 342 339 337 332 328 322 316 309 302 296
193 191 192 194 194 194 195 196 197 197 197 195 195 195 195 192 190 191 191 192 191 189 191 213 297 333 336 337 338 341 342 341 337 336 334 332 329 325 320 316 311 306 300
196 195 195 195 195 196 197 197 198 198 197 197 196 196 194 192 193 195 195 196 195 202 214 236 281 309 318 325 324 326 329 330 328 328 329 327 324 322 319 315 310 306 303
200 199 198 198 197 198 200 199 199 199 199 198 198 197 194 197 198 201 200 200 203 214 229 250 277 293 305 315 318 318 320 321 320 321 321 321 319 318 316 314 311 308 305
201 202 199 199 200 200 201 201 202 202 202 202 201 200 202 202 205 202 202 205 212 224 240 257 275 289 294 301 306 312 314 316 316 317 318 319 319 316 315 314 311 309 307
202 204 202 201 201 202 203 203 204 204 204 204 203 204 204 206 204 207 208 215 224 235 250 262 275 285 293 297 303 307 309 312 312 313 315 317 319 318 317 316 314 312 309
203 205 203 203 204 204 204 205 206 206 206 207 207 207 207 208 209 212 217 223 232 242 253 265 274 282 289 295 300 304 307 309 310 310 313 318 319 319 319 319 317 315 312
205 204 204 205 205 206 207 207 208 208 208 209 208 208 209 211 213 215 219 226 234 244 256 264 273 279 285 292 297 301 304 306 307 307 310 317 319 319 317 318 318 318 315
208 206 205 205 206 207 208 208 210 210 210 210 210 211 212 213 215 218 221 227 236 247 257 267 274 280 284 289 293 298 301 302 302 304 308 312 316 316 315 315 315 315 314
209 206 206 206 207 209 210 211 211 212 211 212 212 213 215 216 217 220 223 230 239 249 259 268 276 280 285 289 292 295 297 298 298 300 304 309 312 313 313 312 313 313 312
209 208 207 207 208 209 210 212 213 212 212 213 214 215 216 218 220 222 227 233 240 248 260 270 277 280 284 289 291 293 294 294 295 296 300 305 310 311 311 311 312 312 311
212 210 210 210 210 209 211 213 214 213 214 215 216 217 218 220 222 225 230 235 241 250 260 269 276 281 284 287 291 291 293 291 293 294 297 302 307 309 309 311 311 310 310
213 213 212 210 211 211 212 213 215 215 216 217 219 220 220 222 223 228 232 236 243 251 260 269 274 280 284 287 290 290 291 289 291 294 295 301 304 306 308 310 310 310 310
213 213 211 212 212 212 213 215 216 216 217 219 221 221 221 223 226 230 234 238 244 251 259 267 273 278 283 288 289 288 290 289 291 293 295 301 304 305 308 309 309 309 309
218 215 214 215 214 215 216 217 218 218 219 220 221 222 224 225 228 232 235 240 245 251 257 265 271 277 282 287 289 290 288 290 290 293 297 300 303 306 308 309 309 309 309
219 216 216 217 217 217 217 218 218 218 220 221 222 225 226 227 229 233 236 241 245 250 256 263 269 273 279 285 289 290 289 291 294 295 298 301 303 306 308 309 309 309 309
220 221 221 219 218 219 219 219 220 221 222 223 224 225 227 228 231 234 237 241 245 250 255 261 267 272 277 281 286 290 291 292 295 297 298 300 303 306 308 310 310 310 309
222 223 222 220 220 220 220 222 222 223 223 224 225 225 228 230 232 235 238 242 246 250 255 260 264 269 275 279 284 286 289 292 294 296 299 302 304 306 308 309 310 310 309
222 222 222 222 221 221 222 223 223 224 224 224 225 227 228 231 233 236 239 242 246 251 254 258 262 267 273 278 282 285 288 291 292 295 299 302 304 306 308 309 310 310 309